Garrison, ND

3:27 AM CST on February 07, 2016 (GMT -0600)
Garrison

Weather History for KN60 - March, 2014

Change the Weather History Date:

Tuesday, March 4, 2014

  Actual Average Record
Temperature  
Mean Temperature 9 °F -  
Max Temperature 12 °F 21 °F 44 °F (2005)
Min Temperature 6 °F 3 °F -17 °F (2003)
Degree Days  
Heating Degree Days 56    
Month to date heating degree days 274  
Moisture  
Dew Point 4 °F    
Average Humidity 82    
Maximum Humidity 88    
Minimum Humidity 76    
Precipitation  
Precipitation 0.02 in - - ()
Month to date precipitation 0.06  
Year to date precipitation 0.94  
Sea Level Pressure  
Sea Level Pressure 30.22 in    
Wind  
Wind Speed 11 mph (ESE)    
Max Wind Speed 17 mph    
Max Gust Speed 19 mph    
Averages and records for this station are not official NWS values.
T = Trace of Precipitation, MM = Missing Value Source: NWS Daily Summary

Daily Weather History Graph

Daily Weather History Graph

Search for Another Location

Airport or City:

Trip Planner

Search our weather history database for the weather conditions in past years. The results will help you decide how hot, cold, wet, or windy it might be!

Date:

Astronomy

Mar. 04, 2014 Rise Set
Actual Time 7:20 AM CST 6:35 PM CST
Civil Twilight 6:49 AM CST 7:06 PM CST
Nautical Twilight 6:14 AM CST 7:41 PM CST
Astronomical Twilight 5:38 AM CST 8:17 PM CST
Moon 8:50 AM CST (3/4) 11:04 PM CST (3/4)
Length of Visible Light 12h 16m
Length of Day
11h 14m
Waxing Crescent, 15% of the Moon is Illuminated
Mar 4
Waxing Crescent
Mar 8
First Quarter
Mar 16
Full
Mar 23
Last Quarter
Mar 30
New

Hourly Weather History & Observations

Time (CST) Temp. Windchill Dew Point Humidity Pressure Visibility Wind Dir Wind Speed Gust Speed Precip Events Conditions
12:52 AM 7.0 °F -4.5 °F -0.0 °F 73% 30.17 in - East 6.9 mph - N/A   Unknown
1:52 AM 7.0 °F -1.7 °F 1.0 °F 77% 30.19 in - East 4.6 mph - N/A   Unknown
2:52 AM 7.0 °F -5.7 °F 1.0 °F 77% 30.18 in - East 8.1 mph - N/A   Unknown
3:52 AM 6.1 °F -9.5 °F 1.9 °F 83% 30.17 in - East 11.5 mph - N/A   Unknown
4:52 AM 6.1 °F -7.8 °F 1.9 °F 83% 30.17 in - East 9.2 mph - N/A   Unknown
5:52 AM 6.1 °F -8.7 °F 1.9 °F 83% 30.17 in - ESE 10.4 mph - N/A   Unknown
6:52 AM 7.0 °F -5.7 °F 1.9 °F 80% 30.19 in - ESE 8.1 mph - N/A   Unknown
7:52 AM 7.0 °F -7.5 °F 3.0 °F 84% 30.19 in - ESE 10.4 mph - 0.01 in   Unknown
8:52 AM 7.0 °F -7.5 °F 3.0 °F 84% 30.21 in - East 10.4 mph - N/A   Unknown
9:52 AM 8.1 °F -9.0 °F 3.0 °F 80% 30.20 in - East 15.0 mph - N/A   Unknown
10:52 AM 8.1 °F -7.7 °F 3.0 °F 80% 30.22 in - ESE 12.7 mph - N/A   Unknown
11:52 AM 9.0 °F -7.3 °F 3.0 °F 77% 30.22 in - East 13.8 mph - N/A   Unknown
12:52 PM 10.0 °F -5.9 °F 3.9 °F 76% 30.22 in - ESE 13.8 mph - N/A   Unknown
1:52 PM 10.9 °F -5.4 °F 5.0 °F 77% 30.21 in - ESE 15.0 mph - N/A   Unknown
2:52 PM 10.9 °F -4.1 °F 6.1 °F 81% 30.22 in - ESE 12.7 mph - N/A   Unknown
3:52 PM 10.9 °F -4.1 °F 6.1 °F 81% 30.22 in - ESE 12.7 mph - N/A   Unknown
4:52 PM 10.9 °F -4.1 °F 6.1 °F 81% 30.23 in - ESE 12.7 mph - 0.01 in   Unknown
5:52 PM 10.9 °F -4.1 °F 6.1 °F 81% 30.25 in - ESE 12.7 mph - N/A   Unknown
6:52 PM 10.9 °F -4.1 °F 5.0 °F 77% 30.26 in - ESE 12.7 mph - N/A   Unknown
7:52 PM 10.9 °F -3.4 °F 5.0 °F 77% 30.29 in - SE 11.5 mph - N/A   Unknown
8:52 PM 10.0 °F -5.2 °F 5.0 °F 80% 30.30 in - SE 12.7 mph - N/A   Unknown
9:52 PM 10.0 °F -3.7 °F 5.0 °F 80% 30.31 in - SE 10.4 mph - N/A   Unknown
10:52 PM 10.0 °F -4.5 °F 5.0 °F 80% 30.29 in - SE 11.5 mph - N/A   Unknown
11:52 PM 10.9 °F -2.6 °F 6.1 °F 81% 30.29 in - SE 10.4 mph - N/A   Unknown